GFSSE_850_thetae_093.txt.gz
Theta_e
343 340 343 336 335 335 331 331 331 332 332 335 341 343 343 342 338 333 333 332 335 337 338 339 340 338 337 338 339 340 342 338 329 330 329 329 335 338 335 333 336 341 331
342 341 342 335 334 333 331 330 333 332 332 332 333 335 338 334 332 333 334 332 341 338 338 339 340 341 337 339 333 341 340 335 326 330 329 331 335 332 331 328 326 324 321
341 342 335 332 332 332 331 330 333 336 332 331 332 331 331 331 332 337 343 343 335 339 338 333 340 342 341 338 327 336 332 328 328 327 327 338 334 325 335 332 331 331 338
339 343 337 333 331 331 331 330 331 334 335 330 330 334 339 340 341 342 340 341 340 340 327 331 339 332 328 325 334 339 334 325 330 336 342 337 337 327 330 340 341 335 326
339 339 339 338 336 331 330 330 330 332 334 331 329 338 342 338 341 339 341 341 338 341 330 324 328 335 327 341 340 331 327 329 331 333 335 340 338 336 339 330 329 337 333
341 342 340 338 338 337 334 332 332 333 334 331 329 331 333 332 333 340 339 337 337 341 337 327 342 331 328 327 325 328 332 330 324 329 330 330 329 329 321 334 337 331 329
340 341 342 342 337 338 337 335 334 334 334 333 330 342 332 341 337 340 337 340 341 338 327 334 342 328 334 331 332 336 336 332 331 331 327 327 328 323 319 332 330 325 332
339 340 344 343 340 337 338 337 335 335 335 336 337 334 333 335 332 333 340 334 340 340 325 332 336 340 340 335 340 340 338 338 337 334 333 331 330 329 326 323 330 329 329
339 340 341 343 337 336 337 336 336 336 336 338 340 344 343 341 342 334 331 333 336 338 326 335 340 340 340 339 340 340 338 337 338 337 332 328 327 330 332 333 334 330 327
338 337 336 338 342 338 336 335 336 336 336 337 339 339 344 346 344 341 342 334 338 340 325 330 337 340 338 339 340 340 339 338 340 340 340 336 327 324 336 336 329 328 326
337 336 334 333 334 339 335 335 336 336 336 337 342 338 342 344 342 340 341 341 337 338 327 325 331 333 337 339 339 340 342 341 340 340 341 343 340 333 327 324 327 325 324
336 335 334 332 332 332 333 334 335 337 338 337 342 336 337 337 337 337 339 339 341 336 337 328 334 331 334 343 339 339 344 341 340 340 340 343 343 341 339 329 324 325 326
340 337 337 334 333 333 333 333 335 338 344 345 337 337 337 337 337 337 337 339 339 341 341 337 338 340 341 341 336 341 342 342 343 341 340 344 345 343 342 338 329 325 326
341 341 341 337 334 333 333 334 333 334 336 342 338 337 335 336 335 337 338 337 339 340 341 342 342 342 330 327 328 337 341 342 342 343 342 343 345 342 342 341 336 330 328
345 344 343 342 337 335 335 335 335 335 335 336 337 337 335 335 336 338 338 338 341 341 340 340 339 334 331 328 330 336 338 340 338 342 344 343 343 342 342 342 341 337 333
346 347 345 345 343 339 336 335 336 336 336 336 337 336 338 340 337 338 339 340 343 341 341 340 338 338 335 335 329 331 333 336 336 339 343 343 343 343 343 343 343 341 339
345 347 348 347 346 345 339 336 336 336 336 338 336 336 336 342 343 337 338 339 340 341 342 342 339 337 337 337 334 331 333 337 339 339 340 343 344 344 344 344 344 343 342
344 346 348 347 347 347 343 336 335 336 343 344 340 336 340 342 342 340 339 337 340 341 341 341 342 337 338 339 338 334 333 337 343 342 339 341 343 343 345 345 344 344 344
344 345 346 347 346 347 346 339 337 340 345 345 345 346 341 343 341 342 344 341 338 338 339 339 340 342 341 342 341 341 335 339 342 342 343 343 343 343 344 342 342 343 343
342 344 346 346 345 347 347 345 341 340 344 341 340 344 344 343 343 344 343 343 341 341 341 340 339 340 342 341 342 342 340 339 341 342 343 343 342 343 342 342 344 344 344
340 343 344 344 345 346 348 347 346 345 346 346 346 341 345 346 346 343 344 344 343 343 343 342 342 341 340 342 340 343 344 343 343 342 343 343 343 342 344 343 343 342 342
339 339 342 345 345 346 346 348 348 348 348 347 346 347 347 346 345 345 341 343 344 344 344 345 345 344 341 341 343 344 343 344 345 343 341 341 341 341 342 341 342 342 342
338 340 341 345 347 347 347 348 348 348 348 349 346 346 346 345 342 341 343 344 345 345 345 345 343 344 344 340 341 343 343 341 344 343 341 341 341 342 342 342 341 340 341
339 340 343 344 346 347 348 348 348 348 348 346 346 347 347 347 346 346 342 344 344 344 344 342 342 343 343 342 341 342 342 342 344 344 341 341 341 341 341 340 340 340 342
343 343 343 345 347 348 348 348 348 349 349 350 344 347 347 346 347 348 343 344 343 344 343 342 341 342 343 343 341 344 342 342 342 343 343 343 339 338 337 339 338 339 340
344 343 343 345 347 348 348 348 348 349 350 349 345 344 343 343 343 344 344 345 345 346 344 342 341 341 342 342 341 341 341 342 344 344 344 344 342 338 338 340 339 341 342

GFSSE_850_thetae_096.txt.gz
Theta_e
348 348 342 339 341 340 339 339 338 339 342 343 343 343 342 341 333 336 339 336 336 338 338 342 338 338 338 340 340 340 340 335 337 334 331 330 332 340 339 338 344 344 332
348 348 340 336 338 333 332 331 332 333 335 340 342 343 342 340 337 335 333 334 337 337 340 340 340 337 338 337 340 342 340 329 329 330 330 335 335 333 334 338 344 328 331
348 349 339 334 334 332 330 331 333 332 332 334 336 338 338 336 336 336 337 340 337 339 339 340 341 338 338 332 338 340 333 330 330 332 335 341 342 331 327 326 324 326 323
348 349 348 332 333 332 330 332 335 335 331 331 332 331 331 331 336 343 342 336 340 341 335 337 341 341 339 328 332 332 329 327 328 335 338 338 338 338 337 335 332 338 338
349 349 349 332 331 331 330 330 331 334 333 330 336 335 340 341 342 342 340 341 340 335 328 335 334 330 324 330 340 334 330 339 338 345 342 338 342 336 334 342 341 331 333
349 349 346 334 331 331 330 330 331 334 332 329 331 339 337 337 340 340 341 341 339 341 324 326 331 330 342 342 337 329 334 332 340 342 343 339 340 330 335 331 333 338 332
350 349 342 339 336 332 331 331 331 334 333 330 329 332 332 333 334 342 336 338 341 342 325 342 336 331 328 328 326 332 330 331 342 342 343 342 341 321 323 341 329 329 337
349 350 350 344 344 339 335 333 333 335 335 333 334 336 338 341 331 340 339 339 341 333 325 341 335 335 329 329 335 336 333 340 343 342 343 343 329 322 320 338 329 329 331
349 350 352 348 346 346 338 336 335 336 336 336 337 335 336 332 333 336 341 336 341 340 326 335 337 341 335 337 340 339 338 340 347 343 341 340 330 330 330 329 333 328 328
349 349 351 352 350 349 341 338 336 337 336 338 342 345 344 342 342 335 332 333 338 338 326 340 339 339 338 339 340 339 337 337 344 342 342 338 325 325 330 333 330 334 330
350 350 350 350 351 348 348 343 339 341 339 338 343 341 346 350 347 342 345 339 338 340 325 331 339 338 338 339 340 341 339 345 342 341 342 341 335 328 326 325 328 337 324
349 349 349 350 351 349 349 348 348 348 345 347 348 346 350 350 349 349 347 340 340 337 331 324 331 332 337 343 341 339 344 344 343 343 344 343 342 340 337 329 324 325 325
348 349 349 349 351 350 348 348 347 347 350 349 348 349 350 349 347 346 348 344 344 339 344 337 339 340 342 342 342 343 346 346 343 343 346 343 344 343 342 338 330 325 325
348 348 349 350 350 349 349 349 350 349 350 345 351 346 349 349 349 348 348 348 345 343 343 345 342 342 342 342 343 344 346 345 343 345 346 343 343 344 342 342 339 331 328
349 350 350 351 350 349 348 349 348 348 350 351 351 348 349 348 348 348 348 346 347 348 344 342 346 344 345 342 342 342 344 345 345 345 345 346 343 343 342 342 342 339 334
349 350 351 351 347 342 344 345 347 348 348 349 349 349 343 348 340 342 348 345 343 347 344 344 345 346 344 343 342 343 343 343 344 345 346 347 345 343 343 343 342 342 340
348 350 351 346 343 338 337 342 344 344 344 347 347 347 338 339 339 342 348 346 346 347 346 344 345 347 347 344 343 343 344 343 343 345 346 347 349 346 343 343 343 344 343
348 351 351 350 346 344 342 343 347 347 346 347 345 347 341 337 341 344 348 347 347 348 347 347 343 347 347 346 346 344 344 344 345 347 348 347 347 347 349 344 344 344 344
350 352 352 349 347 346 345 346 342 346 345 348 349 348 338 336 342 344 348 348 348 348 348 348 345 348 347 345 346 348 346 344 344 346 348 347 347 347 347 350 346 343 342
350 348 349 348 348 346 347 345 348 347 347 350 350 351 349 340 342 342 346 348 348 347 346 347 347 348 347 347 346 349 347 347 345 346 347 347 347 349 350 350 351 350 348
351 344 343 346 348 347 348 350 349 347 348 351 351 352 351 344 343 343 343 345 347 348 348 348 349 346 347 347 348 346 347 348 346 347 347 347 347 349 350 349 350 350 350
351 346 340 343 346 346 348 351 352 350 350 351 352 352 350 346 347 347 345 348 348 347 348 347 347 348 346 347 346 344 343 344 345 346 346 347 347 347 348 349 350 350 348
352 350 338 339 343 344 349 353 351 354 354 355 355 354 353 350 350 346 347 347 349 347 347 347 346 346 347 347 346 345 344 342 343 345 346 347 347 347 348 349 350 348 347
352 353 335 338 342 343 345 354 352 353 353 354 354 354 354 348 348 349 344 345 346 347 348 346 346 345 343 342 344 346 345 347 343 346 347 348 350 348 346 347 349 344 341
352 351 337 337 340 344 346 351 352 351 353 354 352 353 350 352 347 347 347 347 344 344 347 347 345 346 343 342 344 344 345 347 345 344 346 347 348 348 348 344 345 346 347
352 351 341 342 341 343 346 347 348 354 354 356 352 350 345 351 348 342 348 345 346 346 344 346 344 342 342 343 344 344 345 346 345 344 343 343 345 345 348 345 342 340 346

GFSSE_850_thetae_102.txt.gz
Theta_e
349 341 342 342 341 341 341 343 343 343 343 341 336 340 333 333 333 338 338 338 340 338 334 333 335 335 335 334 336 337 338 338 338 338 333 335 337 341 342 341 339 335 325
348 340 341 341 340 340 342 343 342 343 343 342 341 341 336 334 339 339 337 337 338 341 338 336 335 338 339 339 339 336 331 339 329 328 334 338 335 343 345 344 339 338 329
350 339 340 339 341 340 340 337 337 338 341 343 342 342 336 339 338 334 336 339 338 340 340 340 338 339 336 340 341 335 327 327 339 342 343 333 331 340 344 344 328 339 331
351 339 337 339 338 333 332 333 333 334 337 340 341 339 337 334 332 333 339 341 339 340 342 340 340 339 334 341 341 327 327 340 342 343 346 343 328 327 334 332 323 326 326
350 348 334 337 334 330 331 333 332 332 334 334 334 333 334 336 341 342 340 340 339 336 341 341 339 339 336 337 333 330 332 340 341 343 346 344 336 331 333 331 337 337 338
349 349 332 333 332 330 331 335 334 331 331 332 331 331 334 335 340 340 341 340 336 330 339 335 341 333 325 337 331 326 342 345 346 343 342 342 341 340 342 342 331 341 332
348 347 331 332 331 330 330 332 334 332 333 334 338 338 340 341 341 340 341 338 339 325 337 335 326 333 339 338 329 331 341 345 343 343 341 344 345 333 329 340 336 331 325
350 349 334 331 331 330 330 331 333 333 330 333 339 340 334 336 339 339 339 339 340 325 331 336 333 343 340 328 326 332 342 343 345 344 343 345 328 322 338 326 328 335 331
353 350 339 333 331 331 330 331 333 334 332 329 332 337 333 333 336 340 340 337 339 326 342 340 332 328 324 327 328 325 341 344 343 342 344 345 328 321 336 329 328 328 331
354 351 336 338 335 333 332 332 333 337 335 332 339 332 341 334 333 338 338 337 340 327 335 341 328 327 329 332 331 331 342 343 345 344 345 341 338 330 327 331 330 328 330
353 352 348 346 347 344 340 334 335 342 342 336 340 335 339 335 334 333 336 336 337 335 326 336 336 338 331 338 337 330 340 344 348 347 344 337 324 323 326 326 325 329 326
348 353 352 350 347 347 350 342 337 345 342 339 343 342 342 348 346 345 343 343 335 338 326 342 338 338 335 337 333 332 344 344 347 346 343 344 337 335 330 324 324 325 324
347 349 350 353 349 349 350 349 342 346 345 344 345 344 346 349 348 349 349 344 338 337 330 329 341 336 336 344 342 341 339 342 345 346 344 345 337 337 340 338 328 325 324
349 348 349 352 352 347 352 350 348 348 349 349 347 346 350 349 348 349 348 346 345 343 343 341 327 328 334 344 345 345 344 343 345 345 344 345 342 340 342 341 339 332 327
349 348 348 349 352 352 352 351 349 349 348 346 350 346 350 350 348 348 349 347 346 346 346 346 343 342 340 341 343 345 343 342 346 347 346 346 345 342 341 342 341 341 336
350 349 349 349 350 350 352 350 349 350 348 349 349 344 347 347 350 344 346 348 348 348 344 346 345 345 343 343 342 343 343 345 345 346 345 346 348 346 342 342 342 342 341
350 349 350 349 349 350 351 350 350 352 351 351 348 347 346 344 349 347 349 347 345 343 346 343 345 347 346 346 345 344 341 343 345 346 346 345 346 345 346 346 342 341 342
350 349 350 350 350 349 350 348 349 350 347 351 347 351 350 347 348 349 346 348 346 346 346 345 342 343 345 343 344 344 344 343 341 344 343 344 348 347 347 346 347 346 342
350 350 350 352 352 348 345 347 347 345 345 350 350 348 351 347 343 349 345 346 347 345 345 344 341 341 347 346 345 345 345 346 346 345 347 343 347 348 348 348 347 348 348
349 350 351 353 353 352 347 348 347 350 346 347 347 349 346 348 347 343 344 346 346 347 346 345 347 342 341 346 347 348 344 343 345 347 346 345 344 342 343 347 346 348 348
349 351 351 353 354 353 350 348 351 349 349 347 349 348 348 347 348 346 343 346 341 340 346 346 344 345 342 343 348 347 346 348 346 343 344 345 344 346 348 347 345 346 348
349 351 350 351 352 353 350 347 350 351 350 348 348 350 349 349 349 350 342 341 347 347 345 347 347 347 349 345 345 345 345 345 349 348 341 345 344 346 347 345 347 347 347
349 349 350 351 350 351 350 350 350 353 350 349 348 349 350 350 352 349 347 343 344 346 345 345 347 347 346 348 345 344 344 345 346 346 347 345 343 346 345 346 345 347 348
351 350 349 351 351 352 349 351 352 354 351 351 349 350 350 351 351 350 349 348 346 347 348 346 345 345 344 342 346 348 346 348 347 346 348 346 346 349 348 349 346 347 348
352 352 352 350 352 354 347 352 351 352 353 351 352 351 353 354 353 350 350 351 347 346 347 346 347 347 347 346 343 344 345 346 344 346 346 348 346 347 347 348 346 347 350
353 355 356 353 354 358 347 352 351 352 354 354 353 356 354 353 353 352 349 345 345 348 346 348 347 346 345 344 343 343 342 343 341 342 347 346 347 345 345 347 347 348 348

GFSSE_850_thetae_105.txt.gz
Theta_e
348 342 344 344 341 341 342 342 342 341 335 337 337 331 331 332 334 334 335 334 333 335 337 337 340 342 341 341 339 338 338 338 337 338 331 336 339 338 339 333 326 323 325
344 342 344 343 341 341 342 342 343 343 342 339 341 333 333 334 336 337 340 341 337 333 333 335 335 334 334 335 336 337 338 338 330 329 335 336 342 342 341 335 332 325 331
340 342 341 339 339 341 343 342 342 343 342 341 341 335 332 336 335 335 337 337 339 338 336 335 337 338 337 338 336 329 331 330 333 337 335 331 342 344 339 328 336 328 338
338 341 341 340 339 338 335 337 339 341 342 342 341 334 334 335 332 335 339 338 340 339 341 339 338 333 340 340 329 327 340 342 344 345 343 334 328 342 340 324 334 326 327
338 340 340 340 336 333 332 332 334 336 339 339 339 336 335 332 334 338 340 339 339 340 340 340 340 337 338 334 325 340 341 342 344 344 344 343 328 331 334 327 324 329 341
336 336 337 338 332 330 333 333 332 334 335 337 339 334 334 339 341 339 338 339 334 338 339 340 339 336 328 330 325 339 342 347 344 344 344 342 336 332 328 336 342 339 335
334 332 333 333 330 330 333 334 332 332 336 333 331 332 334 337 340 340 339 337 327 339 334 334 333 325 334 328 333 342 346 345 344 342 342 342 343 333 341 332 328 324 325
335 331 331 331 330 330 331 333 332 329 330 334 339 340 340 340 340 339 340 337 331 327 335 330 338 334 337 327 334 343 343 344 344 343 340 343 331 329 329 334 336 329 325
344 336 332 330 330 330 330 332 332 330 329 339 337 340 335 342 338 338 339 337 334 326 335 334 339 337 328 324 332 342 343 344 345 342 342 344 327 321 335 326 328 329 331
349 347 338 332 330 330 330 331 333 333 329 329 339 332 332 333 341 343 338 337 331 332 342 332 327 323 324 325 330 340 342 342 345 345 347 342 339 328 329 329 326 325 324
351 347 336 333 332 331 331 332 334 336 334 332 333 335 342 331 336 338 337 337 338 326 338 333 328 324 328 329 330 341 342 345 345 346 347 340 327 323 326 326 327 328 335
353 348 344 334 334 333 333 333 334 338 336 336 339 335 338 335 336 335 334 333 337 332 325 334 335 330 332 337 332 333 342 346 347 347 347 341 339 331 325 323 323 328 324
352 352 349 338 333 334 335 334 334 337 339 338 341 341 341 346 346 345 345 342 334 336 325 340 335 335 333 335 332 339 342 343 345 344 344 344 340 335 335 334 325 324 324
353 352 351 349 345 342 337 341 341 337 340 339 342 343 342 346 347 348 348 345 343 337 335 324 336 333 334 340 339 344 337 344 345 346 346 345 344 341 341 338 336 329 325
351 352 350 350 350 349 342 345 347 340 343 346 347 345 346 346 346 345 346 347 346 345 341 336 332 327 330 341 344 345 343 345 344 346 347 345 345 343 341 339 341 340 337
348 349 350 349 350 350 345 348 347 348 344 345 346 345 346 346 349 346 346 347 346 347 345 345 342 342 339 343 341 343 345 344 346 346 348 346 346 347 344 342 342 341 341
349 348 349 348 350 349 349 351 350 348 349 335 348 347 345 346 347 348 345 345 346 346 346 344 345 346 344 342 342 342 343 343 344 346 347 347 346 346 345 345 344 341 341
349 348 349 348 349 349 348 352 351 349 352 348 345 338 346 347 347 348 348 348 347 346 344 345 343 345 347 343 346 344 343 338 341 344 346 346 345 346 346 345 345 346 345
350 349 349 349 349 349 348 350 350 348 352 351 349 345 344 347 347 347 348 348 345 344 345 346 345 342 346 345 345 344 344 344 341 341 344 344 344 346 348 348 347 347 346
349 350 349 350 349 349 349 347 349 348 350 349 352 350 347 349 348 346 345 346 342 345 341 344 343 341 342 342 343 344 345 345 345 344 344 344 345 344 346 346 345 347 346
349 349 349 348 349 350 350 347 345 346 345 344 350 350 349 346 344 345 342 340 339 341 345 345 344 346 342 341 344 345 346 348 346 346 345 345 345 345 344 343 345 347 345
347 348 348 348 348 348 347 342 342 341 341 340 344 346 348 348 347 347 348 346 338 340 340 345 345 347 346 343 341 343 346 346 346 345 344 345 344 344 344 345 345 345 345
347 348 347 348 348 347 346 345 344 344 343 345 344 347 349 348 348 348 349 349 342 337 344 346 345 347 346 347 346 344 345 344 343 342 344 344 344 343 344 345 346 347 345
348 347 347 347 347 349 347 346 345 345 344 344 345 345 349 350 349 349 350 349 346 341 343 345 345 345 347 346 345 345 344 344 345 345 346 347 346 344 343 345 346 345 345
349 348 348 348 348 349 348 344 345 346 347 347 348 347 347 349 349 349 350 351 347 346 346 346 346 346 345 344 344 344 344 348 347 346 347 345 347 347 347 346 347 346 346
349 350 349 348 348 348 349 347 345 345 347 350 351 349 348 349 351 352 353 352 348 345 342 343 345 346 345 346 346 345 343 343 343 344 344 340 343 347 346 349 349 348 347

GFSSE_850_thetae_108.txt.gz
Theta_e
337 333 335 338 339 340 341 336 334 336 332 332 334 334 334 333 333 334 335 331 333 336 340 343 344 341 340 338 333 333 337 338 334 336 336 335 337 337 326 326 328 332 333
339 339 339 340 340 341 341 342 339 337 337 333 332 332 333 334 334 334 334 335 334 337 338 340 340 340 339 339 337 337 337 337 334 333 337 338 339 340 334 323 323 323 332
340 343 343 341 340 342 342 342 342 340 339 338 333 332 333 336 337 339 339 333 333 335 336 334 334 334 334 335 335 338 335 330 334 334 340 341 341 335 330 328 337 328 333
341 343 342 340 341 342 342 342 343 342 340 341 333 333 334 334 334 334 336 339 337 335 334 335 337 336 337 333 330 331 332 334 341 330 332 333 342 337 331 332 331 328 330
340 339 337 338 340 341 340 340 341 342 341 341 334 334 334 332 332 335 336 338 339 340 339 336 333 337 338 325 329 339 341 343 344 341 340 326 328 331 323 327 325 332 335
338 339 338 337 336 334 334 334 338 341 340 340 338 334 331 333 335 336 335 338 339 340 340 337 335 334 328 329 339 341 341 344 344 344 342 339 330 331 329 326 331 338 337
336 338 338 336 333 331 332 331 333 335 337 339 337 341 339 339 337 337 337 332 339 336 338 338 334 326 328 331 339 344 344 344 344 341 341 339 340 335 330 341 336 329 330
331 333 336 333 330 332 333 331 330 332 335 335 331 331 340 340 340 339 337 330 337 338 331 337 325 329 326 330 341 345 345 343 340 342 341 341 332 331 336 328 325 323 323
330 331 332 330 330 331 332 331 329 328 329 333 335 339 339 340 340 340 341 336 325 332 336 328 328 334 326 337 343 344 345 343 340 340 343 342 325 325 328 329 334 329 323
331 331 330 330 329 330 331 332 330 328 333 340 335 337 339 341 337 338 339 340 324 328 337 335 338 333 325 337 342 343 346 345 341 343 343 339 332 325 329 325 325 328 332
333 332 331 330 329 330 331 332 333 330 328 332 342 331 331 334 339 342 336 337 325 339 337 328 327 323 324 330 341 342 343 343 345 343 345 341 333 326 327 327 326 324 325
341 335 334 331 330 330 331 332 334 333 330 329 330 335 337 329 337 338 335 336 335 326 336 329 327 325 326 328 338 342 342 345 346 346 344 343 329 326 324 323 323 325 329
348 345 338 333 331 331 331 332 334 335 335 336 336 335 335 332 332 336 333 332 335 332 324 329 331 326 335 330 333 341 344 346 345 346 345 345 338 335 336 333 324 323 323
350 349 342 335 333 332 332 333 334 336 336 337 338 337 339 341 341 337 343 342 339 334 329 332 332 331 333 335 333 339 340 341 344 344 344 341 339 340 341 340 335 326 324
352 351 348 337 333 333 334 334 334 335 337 337 340 339 341 346 346 347 346 345 344 341 337 328 333 332 334 334 334 340 341 344 344 344 345 344 343 343 341 340 339 339 336
352 350 350 348 344 337 336 334 337 339 336 337 340 342 338 343 344 344 344 346 346 344 344 336 329 327 333 337 343 344 344 345 345 345 346 346 344 344 344 341 341 340 341
350 350 349 350 349 348 347 339 341 339 340 340 343 343 343 347 346 346 343 346 344 344 344 344 343 335 332 329 342 341 343 345 344 345 346 347 346 345 344 344 343 341 340
347 349 348 350 349 350 348 342 344 345 342 345 344 347 343 347 345 347 345 345 344 346 344 344 344 343 342 342 341 341 341 342 343 344 345 345 347 344 345 344 344 344 345
347 348 347 348 349 349 349 347 346 346 346 345 340 343 344 344 345 346 347 346 347 345 346 343 344 343 343 343 341 345 343 344 340 339 341 345 345 344 346 348 347 346 345
348 348 347 346 348 349 348 348 348 349 348 346 351 347 340 342 345 346 348 348 348 347 346 344 344 345 343 345 342 345 345 344 343 344 342 341 343 343 343 344 347 346 346
349 349 348 347 347 349 349 349 349 350 349 349 349 349 345 346 345 343 345 348 348 348 344 343 342 343 343 342 345 345 344 343 344 342 343 344 343 343 343 344 343 344 344
350 350 349 348 347 348 348 348 348 346 350 348 349 350 349 347 347 348 346 345 344 342 341 343 344 343 341 341 342 343 344 344 345 346 344 344 343 344 345 345 344 342 343
350 350 349 349 348 348 348 349 349 347 347 348 349 348 350 349 349 347 345 346 346 346 341 341 341 344 344 346 344 342 344 343 343 344 345 344 344 343 345 344 344 344 345
348 348 349 349 348 348 348 348 349 345 343 341 342 346 348 348 346 348 348 347 348 349 344 340 342 344 345 344 345 343 342 343 343 342 341 342 342 343 344 345 343 344 345
349 349 349 348 349 348 348 346 347 344 336 335 336 337 341 342 346 349 348 348 349 350 346 340 344 346 345 345 346 346 346 344 344 345 344 344 344 345 345 345 343 344 345
348 348 349 350 348 348 348 348 345 341 337 336 338 337 339 341 346 348 349 349 350 351 348 344 343 344 344 345 345 345 345 345 345 344 346 346 345 341 341 346 346 345 346

GFSSE_850_thetae_111.txt.gz
Theta_e
332 331 331 335 335 331 332 332 331 334 338 342 342 337 333 333 336 338 336 339 334 335 337 337 339 334 333 332 333 338 338 334 337 333 337 333 334 336 339 336 331 328 333
333 334 334 336 339 339 334 335 333 332 334 336 335 333 332 334 332 332 333 334 332 333 343 343 340 337 335 332 333 334 336 336 331 332 334 337 329 324 324 324 329 329 331
334 336 337 337 339 341 342 335 336 335 334 334 334 335 334 333 334 334 332 333 336 339 340 341 339 339 339 338 337 336 331 329 333 335 338 339 333 330 323 324 323 339 338
334 335 337 339 340 341 342 341 337 339 335 331 334 339 336 335 336 334 334 334 336 337 335 334 334 335 336 334 337 335 327 332 330 336 340 340 330 329 329 340 326 331 332
339 339 341 340 340 341 342 342 341 339 340 333 335 337 338 336 337 339 338 333 333 333 333 336 336 337 335 328 334 329 336 331 336 335 332 338 333 329 330 331 328 332 333
340 341 342 339 340 341 341 341 342 341 341 335 334 338 335 334 335 335 339 339 338 338 335 336 337 338 329 328 334 334 340 342 341 338 334 329 332 323 324 325 331 332 327
339 339 336 337 339 338 336 337 340 341 340 336 338 336 332 333 336 335 337 338 338 339 337 334 336 333 324 338 340 341 343 343 340 340 338 339 335 329 329 330 335 336 329
338 337 334 335 335 333 333 332 335 338 338 335 338 338 335 339 338 338 332 340 337 337 337 335 330 329 334 338 341 342 342 341 340 340 339 340 332 332 329 333 327 328 327
338 337 335 331 331 332 332 331 331 333 336 337 333 334 340 341 339 338 334 329 341 331 340 334 325 330 330 339 343 344 343 339 338 340 340 341 330 329 330 329 325 322 323
337 336 335 331 330 332 333 330 329 331 333 330 331 335 337 339 338 340 338 329 338 329 325 326 329 326 326 338 342 344 342 340 339 340 342 341 325 327 331 325 330 328 324
336 335 335 330 329 331 331 330 328 327 328 335 335 337 338 337 338 338 338 336 322 332 332 338 334 328 328 340 344 344 345 343 340 342 344 344 331 324 329 327 325 324 328
333 332 334 330 329 330 331 331 329 328 331 336 331 331 333 337 336 338 337 337 324 339 329 329 330 328 327 340 342 343 344 343 343 344 344 344 336 325 326 325 325 325 326
332 331 331 330 329 329 330 332 332 329 328 331 339 330 329 330 337 337 333 335 332 332 337 328 325 324 324 333 340 341 343 344 345 347 346 344 339 328 329 327 324 323 324
337 339 337 332 330 329 330 332 334 333 331 329 331 334 337 329 334 336 333 332 335 329 324 326 325 327 325 330 338 339 341 344 344 344 344 344 340 338 338 336 331 325 324
345 343 344 339 332 330 330 331 333 335 335 334 337 334 337 333 333 334 333 337 337 335 332 325 330 326 333 331 331 336 342 341 342 343 344 343 340 340 341 341 339 335 332
348 347 348 344 337 332 331 331 332 334 336 336 337 337 338 338 342 339 343 343 343 342 338 333 330 332 331 335 333 334 339 341 344 343 345 345 342 342 342 341 340 340 340
348 350 350 347 338 333 333 333 333 334 335 337 336 339 339 344 345 345 345 345 346 344 344 342 326 330 332 335 334 341 343 344 344 344 344 346 345 344 345 344 341 341 340
348 350 350 349 344 335 333 333 334 334 336 336 337 339 341 339 340 344 344 343 345 345 344 344 342 335 326 331 336 342 342 342 344 344 344 345 346 345 345 344 344 343 343
348 349 350 349 348 347 341 340 340 336 339 337 338 342 343 343 346 346 346 343 345 345 346 344 343 343 335 330 329 333 341 341 342 342 342 343 344 346 345 344 346 345 345
345 347 348 349 349 349 348 348 342 341 341 342 343 343 345 343 343 347 345 346 346 347 346 343 341 342 343 342 340 341 340 341 341 343 341 340 339 343 345 343 343 345 346
346 346 347 347 348 349 349 349 346 344 343 346 346 343 345 344 342 345 344 346 346 346 346 344 342 343 343 343 343 344 341 344 345 344 343 343 343 341 343 343 343 343 343
347 347 347 347 347 347 349 349 348 347 344 343 344 345 349 347 343 343 344 343 344 347 347 347 345 343 342 344 343 343 344 344 344 344 343 344 344 344 342 343 344 344 344
348 348 348 348 347 347 347 349 349 348 347 345 346 343 347 348 345 345 345 345 344 345 346 346 345 341 342 342 342 342 343 343 343 342 342 343 344 343 343 343 344 344 345
348 349 349 348 348 348 347 349 349 348 347 346 343 346 346 348 349 347 346 347 347 346 345 346 345 340 343 344 343 342 341 342 342 341 340 339 341 343 343 343 343 344 344
348 349 349 349 349 349 348 347 349 348 347 345 345 343 346 346 347 348 347 348 348 347 347 347 347 342 341 341 344 344 344 344 342 342 343 342 343 344 343 343 343 344 345
348 349 350 349 349 349 349 348 348 348 347 347 347 344 341 342 345 345 346 345 347 348 348 348 347 344 340 342 344 343 344 345 344 344 344 343 342 342 343 343 343 344 345